Regional Weather Roundup
Issued by NWS

Home | Current Version | Previous Version | Graphics & Text | Print | Product List | Glossary On
Versions: 1 2 3 4 5 6 7 8 9 10 11 12 13 14 15 16 17 18 19 20 21 22 23 24 25 26 27 28 29 30 31 32 33 34 35 36 37 38 39 40 41 42 43 44 45 46 47 48 49 50
284
ASUS45 KPSR 251310
RWRAZ

ARIZONA HOURLY REGIONAL WEATHER ROUNDUP
NATIONAL WEATHER SERVICE PHOENIX AZ
600 AM MST THU AUG 25 2016

NOTE: FAIR INDICATES FEW OR NO CLOUDS BELOW 12,000 FEET WITH NO
SIGNIFICANT WEATHER AND/OR OBSTRUCTIONS TO VISIBILITY.

AZZ001>003-036-251400-
NORTHWEST ARIZONA

CITY           SKY/WX    TMP DP  RH WIND       PRES   REMARKS
BULLHEAD CITY  CLEAR     82  54  36 CALM      29.85R
KINGMAN        CLEAR     68  54  60 E9        30.04
$$

AZZ004>008-015-016-018-251400-
NORTH CENTRAL ARIZONA

CITY           SKY/WX    TMP DP  RH WIND       PRES   REMARKS
GRAND CANYON   CLEAR     44  40  85 CALM      30.29R
PRESCOTT       CLEAR     57  52  83 CALM      30.19R
FLAGSTAFF      CLEAR     44  43  96 CALM      30.32R
PAYSON         CLEAR     57  46  67 CALM      30.23R
PAGE           PTCLDY    67  48  50 CALM      30.11R
$$

AZZ009>014-017-251400-
NORTHEAST ARIZONA

CITY           SKY/WX    TMP DP  RH WIND       PRES   REMARKS
WINSLOW        PTCLDY    56  48  74 E7        30.19R
SAINT JOHNS    PTCLDY    51  48  89 CALM      30.24R
WINDOW ROCK    CLEAR     44  40  85 CALM      30.31R
SHOW LOW       PTCLDY    50  39  66 CALM      30.29R
$$

AZZ023-251400-
GREATER PHOENIX AREA

CITY           SKY/WX    TMP DP  RH WIND       PRES   REMARKS
PHOENIX        PTCLDY    79  58  48 E6        29.91R
BUCKEYE        PTCLDY    75  57  53 CALM      29.93R
GLENDALE       PTCLDY    79  59  50 CALM      29.93
LUKE AFB       CLEAR     78  60  53 NW5       29.91R
DEER VALLEY    CLEAR     78  52  40 VRB3      29.93R
SCOTTSDALE     CLEAR     78  56  46 N3        29.95R
MESA-FALCON    CLEAR    N/A N/A N/A N6        29.91
MESA-GATEWAY   PTCLDY    75  50  41 E7        29.94R
CHANDLER       PTCLDY    77  57  50 SW7       29.90
$$

AZZ027-028-251400-
SOUTHWEST MARICOPA COUNTY AND PINAL COUNTY

CITY           SKY/WX    TMP DP  RH WIND       PRES   REMARKS
CASA GRANDE    CLEAR     73  52  46 N5        29.95S
GILA BEND      FAIR      81  52  36 N2        29.89R
$$

AZZ503-504-507>509-251400-
SOUTHEAST ARIZONA

CITY           SKY/WX    TMP DP  RH WIND       PRES   REMARKS
TUCSON         CLEAR     72  53  51 S8        30.05R
DAVIS-MONTHAN  CLEAR     71  51  48 S9        30.04R
RYAN FIELD     CLEAR     70  54  56 CALM      30.04
NOGALES        CLEAR     60  50  69 CALM      30.14R
SIERRA VISTA   CLEAR     66  47  51 W3        30.18S
DOUGLAS        CLEAR     58  53  84 S3        30.15R
SAFFORD        PTCLDY    62  52  69 CALM      30.06R
$$

AZZ020-021-025-026-031-251400-
SOUTHWEST ARIZONA

CITY           SKY/WX    TMP DP  RH WIND       PRES   REMARKS
YUMA           PTCLDY    83  74  74 SE18      29.83R
$$

CAZ031-033-041-043-047-048-061-251400-
SOUTHERN CALIFORNIA

CITY           SKY/WX    TMP DP  RH WIND       PRES   REMARKS
DOWNTOWN L.A.  CLEAR     63  58  83 CALM      29.94S
L.A. AIRPORT   PTCLDY    64  57  78 CALM      29.95R
SAN DIEGO      MOCLDY    68  61  78 CALM      29.96S
BURBANK        CLEAR     65  54  67 E3        29.95R
ONTARIO        CLEAR     65  58  78 SW3       29.95R
RIVERSIDE      CLEAR     67  58  72 CALM      29.95R
PALM SPRINGS   CLEAR     81  56  42 CALM      29.86R
EL CENTRO NAS  CLEAR     76  63  64 SE5       29.82R
IMPERIAL       CLEAR     82  63  52 SE9       29.80R
BLYTHE         CLEAR     84  51  31 S7        29.83R
NEEDLES        CLEAR     85  56  37 SW3       29.86R
$$

NVZ020-UTZ003-251400-
SOUTHERN NEVADA-UTAH

CITY           SKY/WX    TMP DP  RH WIND       PRES   REMARKS
LAS VEGAS      PTCLDY    83  37  19 S7        29.87R
SALT LAKE CITY PTCLDY    55  35  47 SW3       30.10R
$$

NMZ009-TXZ055-251400-
NEW MEXICO-WEST TEXAS

CITY           SKY/WX    TMP DP  RH WIND       PRES   REMARKS
ALBUQUERQUE    PTCLDY    58  49  72 N8        30.25R
EL PASO        PTCLDY    70  55  59 NE6       30.11R
$$


........................KEY........................
SKY/WX - SKY CONDITION/WEATHER
TMP    - TEMPERATURE IN FAHRENHEIT
DP     - DEW POINT IN FAHRENHEIT
RH     - RELATIVE HUMIDITY IN PERCENT
WIND   - DIRECTION AND SPEED IN MILES PER HOUR (MPH)
VRB    - VARIABLE WIND DIRECTION
PRES   - MEAN SEA LEVEL PRESSURE IN INCHES OF MERCURY
         F - FALLING PRESSURE   R - RISING PRESSURE
         S - STEADY PRESSURE
VSB    - VISIBILITY IN MILES
HX     - HEAT INDEX IN FAHRENHEIT
WCI    - WIND CHILL INDEX IN FAHRENHEIT
TC     - TEMPERATURE IN CELSIUS WHICH IS ALSO KNOWN AS
         TEMPERATURE IN CENTIGRADE
AFB    - AIR FORCE BASE
         LUKE AFB IS LUKE AIR FORCE BASE
         DAVIS-MONTHAN IS DAVIS-MONTHAN AIR FORCE BASE
NAS    - NAVAL AIR STATION
         EL CENTRO NAS IS EL CENTRO NAVAL AIR STATION
N/A    - NOT AVAILABLE





USA.gov is the U.S. government's official web portal to all federal, state and local government web resources and services.